Weather History for South Lake Tahoe, CA

Change the Weather History Date:

Wednesday, April 23, 2014

  Actual Average Record
Temperature  
Mean Temperature 41 °F 42 °F  
Max Temperature 55 °F 56 °F 71 °F (1987)
Min Temperature 26 °F 28 °F 14 °F (1970)
Degree Days  
Heating Degree Days 24 23  
Month to date heating degree days 473 584  
Since 1 July heating degree days 5873 6736  
Cooling Degree Days 0 0  
Month to date cooling degree days 0 0  
Year to date cooling degree days 0 0  
Moisture  
Dew Point 25 °F    
Average Humidity 58    
Maximum Humidity 85    
Minimum Humidity 31    
Precipitation  
Precipitation 0.00 in - 1.31 in (1961)
Month to date precipitation 0.31  
Year to date precipitation 10.65  
Sea Level Pressure  
Sea Level Pressure 30.03 in    
Wind  
Wind Speed 3 mph (SSE)    
Max Wind Speed 14 mph    
Max Gust Speed 18 mph    
Visibility 10 miles    
Events      
T = Trace of Precipitation, MM = Missing Value Source: NWS Daily Summary

Daily Weather History Graph

Daily Weather History Graph

Search for Another Location

Airport:

Trip Planner

Search our weather history database for the weather conditions in past years. The results will help you decide how hot, cold, wet, or windy it might be!

Date:

Astronomy

Apr. 23, 2014 Rise Set
Actual Time 6:12 AM PDT 7:44 PM PDT
Civil Twilight 5:44 AM PDT 8:13 PM PDT
Nautical Twilight 5:10 AM PDT 8:47 PM PDT
Astronomical Twilight 4:34 AM PDT 9:23 PM PDT
Moon 2:44 AM PDT (4/23) 2:02 PM PDT (4/23)
Length of Visible Light 14h 29m
Length of Day
13h 32m
Waning Crescent, 34% of the Moon is Illuminated
Apr 23
Waning Crescent
Apr 28
New
May 6
First Quarter
May 14
Full
May 21
Last Quarter

Hourly Weather History & Observations

Time (PDT) Temp. Windchill Dew Point Humidity Pressure Visibility Wind Dir Wind Speed Gust Speed Precip Events Conditions
12:53 AM 32.0 °F - 26.1 °F 79% 30.01 in 10.0 mi Calm Calm - N/A   Overcast
1:53 AM 32.0 °F 28.7 °F 26.1 °F 79% 30.01 in 10.0 mi South 3.5 mph - N/A   Overcast
2:53 AM 30.0 °F - 25.0 °F 82% 30.00 in 10.0 mi Calm Calm - N/A   Clear
3:53 AM 28.9 °F - 24.1 °F 82% 30.02 in 10.0 mi Calm Calm - N/A   Clear
4:53 AM 27.0 °F 23.0 °F 21.9 °F 81% 30.04 in 10.0 mi SSW 3.5 mph - N/A   Clear
5:53 AM 27.0 °F - 21.0 °F 78% 30.05 in 10.0 mi Calm Calm - N/A   Clear
6:53 AM 26.1 °F 21.9 °F 19.9 °F 78% 30.07 in 10.0 mi South 3.5 mph - N/A   Clear
7:53 AM 30.9 °F 26.2 °F 21.9 °F 69% 30.06 in 10.0 mi South 4.6 mph - N/A   Clear
8:53 AM 37.9 °F 35.5 °F 19.9 °F 48% 30.04 in 10.0 mi SE 3.5 mph - N/A   Clear
10:53 AM 46.9 °F - 19.9 °F 34% 30.03 in 10.0 mi NNE 8.1 mph - N/A   Clear
11:53 AM 48.0 °F - 19.0 °F 32% 30.03 in 10.0 mi ENE 4.6 mph - N/A   Clear
12:53 PM 48.9 °F - 21.9 °F 35% 30.02 in 10.0 mi Variable 5.8 mph - N/A   Clear
1:53 PM 51.1 °F - 23.0 °F 33% 30.01 in 10.0 mi NE 8.1 mph - N/A   Clear
2:53 PM 52.0 °F - 23.0 °F 32% 30.01 in 10.0 mi North - - N/A   Clear
3:53 PM 52.0 °F - 25.0 °F 35% 30.00 in 10.0 mi Variable 3.5 mph - N/A   Clear
4:53 PM 53.1 °F - 27.0 °F 37% 30.02 in 10.0 mi North - - N/A   Clear
5:53 PM 51.1 °F - 27.0 °F 39% 30.04 in 10.0 mi SSW 5.8 mph - N/A   Clear
6:53 PM 48.0 °F - 28.0 °F 46% 30.05 in 10.0 mi Variable 5.8 mph - N/A   Clear
7:53 PM 43.0 °F - 30.9 °F 62% 30.06 in 10.0 mi Calm Calm - N/A   Clear
8:53 PM 42.1 °F 40.2 °F 30.9 °F 65% 30.06 in 10.0 mi Variable 3.5 mph - N/A   Clear
9:53 PM 39.0 °F - 30.0 °F 70% 30.06 in 10.0 mi Calm Calm - N/A   Clear
10:53 PM 37.0 °F - 28.9 °F 73% 30.06 in 10.0 mi Calm Calm - N/A   Clear
11:53 PM 36.0 °F 33.3 °F 28.9 °F 76% 30.05 in 10.0 mi South 3.5 mph - N/A   Scattered Clouds